{"data":{"norad_id":39500,"epoch":"2026-09-20T03:36:33.458400Z","epoch_age_seconds":52097,"freshness":"FRESH","line1":"1 39500U 14002A   26263.15038725 -.00000126  00000+0  00000+0 0  9992","line2":"2 39500   0.0474 116.2783 0003575  38.1113 337.3319  1.00273399 46417","mean_motion":1.00273399,"eccentricity":0.0003575,"inclination_deg":0.0474,"raan_deg":116.2783,"arg_perigee_deg":38.1113,"mean_anomaly_deg":337.3319,"bstar":0,"rev_number":4641,"period_min":1436.0737886226,"perigee_km":35771.068774547,"apogee_km":35801.216234393,"semimajor_km":42164.27950447,"source":"CELESTRAK","updated_at":"2026-09-20T09:00:35.208580Z"}}